• In Germany
  • List of Countries
  • For 7 days
  • Water Temperature
  • Satellite Maps
  • Weather Map
  • Weather Widgets
  • user-avatar
    Login

    Hourly Weather Basse Santa Su

    Today, 26 May, Saturday

    Time Temperature Precipitation Wind Pressure Humidity
    00:00 +32°C° 0 mm 5 mps 757 mmHg 45%
    01:00 +29°C° 0 mm 5 mps 756 mmHg 49%
    02:00 +28°C° 0 mm 4 mps 756 mmHg 54%
    03:00 +28°C° 0 mm 4 mps 756 mmHg 55%
    04:00 +27°C° 0 mm 3 mps 756 mmHg 57%
    05:00 +27°C° 0 mm 4 mps 756 mmHg 59%
    06:00 +28°C° 0 mm 3 mps 756 mmHg 54%
    07:00 +29°C° 0 mm 3 mps 757 mmHg 49%
    08:00 +30°C° 0 mm 3 mps 757 mmHg 45%
    09:00 +34°C° 0 mm 3 mps 756 mmHg 36%
    10:00 +37°C° 0 mm 3 mps 756 mmHg 28%
    11:00 +40°C° 0 mm 2 mps 756 mmHg 19%
    12:00 +41°C° 0 mm 2 mps 755 mmHg 17%
    13:00 +43°C° 0 mm 2 mps 754 mmHg 15%
    14:00 +45°C° 0 mm 2 mps 754 mmHg 13%
    15:00 +45°C° 0 mm 2 mps 753 mmHg 13%
    16:00 +45°C° 0 mm 2 mps 753 mmHg 13%
    17:00 +45°C° 0 mm 2 mps 752 mmHg 13%
    18:00 +42°C° 0 mm 2 mps 753 mmHg 15%
    19:00 +40°C° 0 mm 2 mps 754 mmHg 16%
    20:00 +39°C° 0 mm 2 mps 754 mmHg 18%
    21:00 +37°C° 0 mm 3 mps 755 mmHg 24%
    22:00 +35°C° 0 mm 3 mps 756 mmHg 29%
    23:00 +33°C° 0 mm 4 mps 757 mmHg 35%

    Tomorrow, 27 May, Sunday

    Time Temperature Precipitation Wind Pressure Humidity
    00:00 +32°C° 0 mm 4 mps 756 mmHg 38%
    01:00 +30°C° 0 mm 4 mps 756 mmHg 42%
    02:00 +29°C° 0 mm 4 mps 756 mmHg 45%
    03:00 +28°C° 0 mm 3 mps 756 mmHg 48%
    04:00 +27°C° 0 mm 3 mps 756 mmHg 51%
    05:00 +26°C° 0 mm 3 mps 756 mmHg 53%
    06:00 +27°C° 0 mm 2 mps 757 mmHg 50%
    07:00 +28°C° 0 mm 2 mps 757 mmHg 47%
    08:00 +29°C° 0 mm 2 mps 757 mmHg 44%
    09:00 +32°C° 0 mm 2 mps 757 mmHg 36%
    10:00 +37°C° 0 mm 2 mps 757 mmHg 28%
    11:00 +40°C° 0 mm 2 mps 757 mmHg 21%
    12:00 +42°C° 0 mm 1 mps 756 mmHg 18%
    13:00 +44°C° 0 mm 1 mps 755 mmHg 16%
    14:00 +45°C° 0 mm 1 mps 754 mmHg 13%
    15:00 +45°C° 0 mm 1 mps 754 mmHg 13%
    16:00 +45°C° 0 mm 1 mps 753 mmHg 13%
    17:00 +44°C° 0 mm 1 mps 753 mmHg 13%
    18:00 +42°C° 0 mm 1 mps 754 mmHg 15%
    19:00 +41°C° 0 mm 1 mps 754 mmHg 16%
    20:00 +39°C° 0 mm 1 mps 755 mmHg 18%
    21:00 +37°C° 0 mm 2 mps 755 mmHg 25%
    22:00 +35°C° 0 mm 4 mps 756 mmHg 32%
    23:00 +33°C° 0 mm 5 mps 757 mmHg 39%

    Day after tomorrow, 28 May, Monday

    Time Temperature Precipitation Wind Pressure Humidity
    00:00 +32°C° 0 mm 4 mps 756 mmHg 42%
    01:00 +30°C° 0 mm 4 mps 756 mmHg 44%
    02:00 +29°C° 0 mm 4 mps 756 mmHg 47%
    03:00 +28°C° 0 mm 3 mps 756 mmHg 49%
    04:00 +27°C° 0 mm 3 mps 756 mmHg 51%
    05:00 +26°C° 0 mm 2 mps 756 mmHg 53%
    06:00 +28°C° 0 mm 2 mps 757 mmHg 50%
    07:00 +29°C° 0 mm 2 mps 757 mmHg 47%
    08:00 +30°C° 0 mm 2 mps 758 mmHg 44%
    09:00 +32°C° 0 mm 2 mps 757 mmHg 37%
    10:00 +36°C° 0 mm 2 mps 757 mmHg 30%
    11:00 +39°C° 0 mm 2 mps 757 mmHg 23%
    12:00 +41°C° 0 mm 1 mps 756 mmHg 20%
    13:00 +44°C° 0 mm 1 mps 755 mmHg 17%
    14:00 +46°C° 0 mm 1 mps 754 mmHg 14%
    15:00 +45°C° 0 mm 1 mps 753 mmHg 14%
    16:00 +44°C° 0 mm 1 mps 753 mmHg 14%
    17:00 +44°C° 0 mm 1 mps 753 mmHg 14%
    18:00 +42°C° 0 mm 1 mps 754 mmHg 16%
    19:00 +40°C° 0 mm 2 mps 754 mmHg 19%
    20:00 +39°C° 0 mm 2 mps 755 mmHg 21%
    21:00 +37°C° 0 mm 3 mps 756 mmHg 30%
    22:00 +34°C° 0 mm 4 mps 756 mmHg 40%
    23:00 +32°C° 0 mm 5 mps 757 mmHg 49%

    29 May, Tuesday

    Time Temperature Precipitation Wind Pressure Humidity
    00:00 +30°C° 0 mm 4 mps 756 mmHg 53%
    01:00 +29°C° 0 mm 4 mps 756 mmHg 56%
    02:00 +28°C° 0 mm 3 mps 756 mmHg 59%
    03:00 +28°C° 0 mm 3 mps 756 mmHg 62%
    04:00 +27°C° 0 mm 3 mps 756 mmHg 65%
    05:00 +26°C° 0 mm 3 mps 757 mmHg 69%
    06:00 +27°C° 0 mm 3 mps 757 mmHg 65%
    07:00 +28°C° 0 mm 3 mps 757 mmHg 60%
    08:00 +29°C° 0 mm 3 mps 758 mmHg 56%
    09:00 +34°C° 0 mm 3 mps 757 mmHg 47%
    10:00 +37°C° 0 mm 3 mps 757 mmHg 37%
    11:00 +40°C° 0 mm 2 mps 757 mmHg 27%
    12:00 +42°C° 0 mm 3 mps 756 mmHg 24%
    13:00 +43°C° 0 mm 3 mps 755 mmHg 21%
    14:00 +45°C° 0 mm 3 mps 754 mmHg 18%
    15:00 +45°C° 0 mm 3 mps 754 mmHg 18%
    16:00 +44°C° 0 mm 3 mps 754 mmHg 18%
    17:00 +44°C° 0 mm 3 mps 753 mmHg 18%
    18:00 +43°C° 0 mm 3 mps 754 mmHg 20%
    19:00 +40°C° 0 mm 3 mps 755 mmHg 23%
    20:00 +38°C° 0 mm 3 mps 756 mmHg 26%
    21:00 +36°C° 0 mm 4 mps 756 mmHg 30%
    22:00 +35°C° 0 mm 4 mps 756 mmHg 35%
    23:00 +33°C° 0 mm 4 mps 757 mmHg 40%

    30 May, Wednesday

    Time Temperature Precipitation Wind Pressure Humidity
    00:00 +32°C° 0 mm 4 mps 757 mmHg 42%
    01:00 +30°C° 0 mm 3 mps 757 mmHg 45%
    02:00 +29°C° 0 mm 3 mps 756 mmHg 47%
    03:00 +28°C° 0 mm 2 mps 757 mmHg 50%
    04:00 +28°C° 0 mm 2 mps 757 mmHg 53%
    05:00 +27°C° 0 mm 2 mps 757 mmHg 56%
    06:00 +28°C° 0 mm 2 mps 757 mmHg 53%
    07:00 +30°C° 0 mm 3 mps 758 mmHg 51%
    08:00 +31°C° 0 mm 3 mps 758 mmHg 49%
    09:00 +34°C° 0 mm 3 mps 758 mmHg 43%
    10:00 +37°C° 0 mm 3 mps 757 mmHg 38%
    11:00 +40°C° 0 mm 4 mps 757 mmHg 32%
    12:00 +42°C° 0 mm 3 mps 756 mmHg 29%
    13:00 +43°C° 0 mm 3 mps 755 mmHg 25%
    14:00 +45°C° 0 mm 2 mps 754 mmHg 22%
    15:00 +43°C° 0 mm 2 mps 754 mmHg 23%
    16:00 +43°C° 0 mm 2 mps 754 mmHg 23%
    17:00 +42°C° 0 mm 2 mps 754 mmHg 23%
    18:00 +42°C° 0 mm 3 mps 754 mmHg 25%
    19:00 +40°C° 0 mm 3 mps 755 mmHg 28%
    20:00 +38°C° 0 mm 4 mps 756 mmHg 30%
    21:00 +37°C° 0 mm 4 mps 756 mmHg 35%
    22:00 +35°C° 0 mm 4 mps 757 mmHg 41%
    23:00 +33°C° 0 mm 5 mps 757 mmHg 47%

    31 May, Thursday

    Time Temperature Precipitation Wind Pressure Humidity
    00:00 +32°C° 0 mm 5 mps 757 mmHg 51%
    01:00 +30°C° 0 mm 4 mps 757 mmHg 54%
    02:00 +30°C° 0 mm 4 mps 756 mmHg 58%
    03:00 +29°C° 0 mm 4 mps 756 mmHg 59%
    04:00 +29°C° 0 mm 4 mps 757 mmHg 61%
    05:00 +28°C° 0 mm 3 mps 757 mmHg 62%
    06:00 +29°C° 0 mm 3 mps 757 mmHg 58%
    07:00 +30°C° 0 mm 3 mps 758 mmHg 54%
    08:00 +31°C° 0 mm 3 mps 758 mmHg 51%
    09:00 +34°C° 0 mm 3 mps 758 mmHg 43%
    10:00 +36°C° 0 mm 3 mps 757 mmHg 35%
    11:00 +38°C° 0 mm 3 mps 757 mmHg 27%
    12:00 +40°C° 0 mm 3 mps 756 mmHg 23%
    13:00 +42°C° 0 mm 3 mps 756 mmHg 20%
    14:00 +44°C° 0 mm 3 mps 755 mmHg 17%
    15:00 +44°C° 0 mm 3 mps 755 mmHg 16%
    16:00 +43°C° 0 mm 2 mps 755 mmHg 15%
    17:00 +43°C° 0 mm 2 mps 754 mmHg 14%
    18:00 +41°C° 0 mm 2 mps 755 mmHg 16%
    19:00 +40°C° 0 mm 2 mps 756 mmHg 18%
    20:00 +38°C° 0 mm 2 mps 756 mmHg 20%
    21:00 +36°C° 0 mm 3 mps 756 mmHg 25%
    22:00 +34°C° 0 mm 3 mps 756 mmHg 30%
    23:00 +33°C° 0 mm 4 mps 756 mmHg 34%
    Show more